Regional Weather Roundup
Issued by NWS Jackson, KY

Home | Current Version | Previous Version | Graphics & Text | Print | Product List | Glossary Off
Versions: 1 2 3 4 5 6 7 8 9 10 11 12 13 14 15 16 17 18 19 20 21 22 23 24 25 26 27

000
ASUS43 KJKL 040010
RWRJKL

EAST KENTUCKY HOURLY WEATHER ROUNDUP
NATIONAL WEATHER SERVICE JACKSON KY
700 PM EST SAT DEC 03 2016

NOTE: "FAIR" INDICATES FEW OR NO CLOUDS BELOW 12,000 FEET WITH
NO SIGNIFICANT WEATHER AND/OR OBSTRUCTIONS TO VISIBILITY.

* THESE REPORTS ARE NOT UNDER NWS QUALITY CONTROL AND MAY NOT
  REPORT WEATHER SUCH AS PRECIPITATION AND FOG.

KYZ079-080-083-085-087-088-110-112-115-119-120-040100
...EASTERN KENTUCKY...

CITY           SKY/WX    TMP DP  RH WIND       PRES   REMARKS
JACKSON        CLOUDY    38  28  67 CALM      30.27F
6HR MIN TEMP:  38; 6HR MAX TEMP:  41;

LONDON         CLOUDY    39  28  64 NE3       30.27S
6HR MIN TEMP:  39; 6HR MAX TEMP:  42;

SOMERSET*      MOCLDY    37  30  75 CALM      30.29S
MONTICELLO*    CLOUDY    39  32  76 W7        30.29R WCI  34
6HR MIN TEMP:  39; 6HR MAX TEMP:  42;

WILLIAMSBURG*  CLOUDY    39  32  75 CALM      30.27R
MIDDLESBORO*   CLOUDY    40  32  74 CALM      30.27S
6HR MIN TEMP:  40; 6HR MAX TEMP:  42;

HARLAN APT*    CLOUDY    37  28  70 CALM      30.26R
PIKE CO APT*     N/A     36  29  76 NE5       30.27S WCI  32
BIG SANDY APT* CLOUDY    38  31  75 CALM      30.29S
6HR MIN TEMP:  38; 6HR MAX TEMP:  41;

MOREHEAD APT*  CLOUDY    39  28  65 CALM      30.31S
ASHLAND*       CLOUDY    39  30  70 N3        30.30S
$$

KYZ035-036-041-042-044-050-067-078-099-040100
...CENTRAL KENTUCKY...

CITY           SKY/WX    TMP DP  RH WIND       PRES   REMARKS
MT STERLING*   CLOUDY    37  30  75 CALM      30.31R
FLEMING/MASON* CLOUDY    37  28  70 NE3       30.32S
DANVILLE*      MOCLDY    36  32  87 CALM      30.29S
LEXINGTON      MOCLDY    39  29  67 NE6       30.29S WCI  35
6HR MIN TEMP:  39; 6HR MAX TEMP:  43;

FRANKFORT      CLOUDY    41  28  60 NE3       30.29R
6HR MIN TEMP:  41; 6HR MAX TEMP:  44;

LOUISVILLE     CLOUDY    42  27  55 NE6       30.30R
6HR MIN TEMP:  42; 6HR MAX TEMP:  45;

LEBANON*         N/A     39  30  70 CALM      30.29R
GLASGOW*       CLOUDY    40  33  75 NE3       30.27S
BOWLING GREEN  CLOUDY    42  33  70 NE3       30.29S
6HR MIN TEMP:  42; 6HR MAX TEMP:  44;

$$

KYZ091>093-OHZ055-061-077-WVZ005-015-034-035-042-040100
...SOUTHERN OHIO/WEST VIRGINIA...

CITY           SKY/WX    TMP DP  RH WIND       PRES   REMARKS
COVINGTON      CLOUDY    38  29  70 NW6       30.30S WCI  33
COLUMBUS       CLOUDY    38  30  73 NE6       30.30F WCI  33
DAYTON         CLOUDY    37  27  67 S3        30.31S
WILMINGTON     CLOUDY    35  28  75 CALM      30.30R
HUNTINGTON     CLOUDY    40  27  59 CALM      30.30F
CHARLESTON     CLOUDY    37  27  67 CALM      30.30F
PINEVILLE*     CLOUDY    34  28  79 MISG      30.32R
BECKLEY        CLOUDY    31  24  75 CALM      30.24S
BLUEFIELD      CLOUDY    30  23  75 CALM      30.23S
LOGAN CO APT*  CLOUDY    36  27  69 CALM      30.27S
$$

VAZ002-007-008-TNZ017-027-036-066-071-040100
...SOUTHWEST VIRGINIA/EAST TENNESSEE...

CITY           SKY/WX    TMP DP  RH WIND       PRES   REMARKS
WISE*          CLOUDY    34  28  80 CALM      30.23S
JONESVILLE*      N/A     37  34  87 CALM      30.28S
ABINGDON*      PTCLDY    39  29  65 CALM      30.24F
BRISTOL        CLOUDY    40  29  64 CALM      30.25F
MORRISTOWN*    MOCLDY    41  32  70 CALM      30.24S
SEVIERVILLE*   CLEAR     41  30  65 NE5       30.24F
KNOXVILLE      CLOUDY    44  32  62 NE6       30.24S
OAK RIDGE      MOCLDY    44  31  60 CALM      30.27S
CROSSVILLE     CLOUDY    39  30  70 NE5       30.23S
NASHVILLE      LGT RAIN  43  33  68 NE6       30.26F
$$

...KEY TO REMARKS...
VSB - VISIBILITY IN MILES
WCI - WIND CHILL INDEX
HX  - HEAT INDEX

$$




USA.gov is the U.S. government's official web portal to all federal, state and local government web resources and services.